Simultaneous Nadir Overpasses (SNOs) Predictions

Prediction of SNOs between GOES-16 and TERRA Satellite Orbit:

Table of predicted SNOs for the next 14.0 days since TLE Epoch: 5/2/2020
Index Date Time (GOES-16) GOES-16 Lat,Lon TERRA Lat,Lon Distance(km) Time Diff (sec)
1 05/03/2020 15:20:32 0.03, -75.21 -0.59, -72.33 327.06 80
2 05/04/2020 03:41:56 -0.03, -75.19 -0.54, -77.52 265.35 80
3 05/06/2020 03:27:07 -0.03, -75.20 0.13, -74.58 71.36 80
4 05/08/2020 03:14:58 -0.03, -75.21 0.74, -71.63 407.78 80
5 05/08/2020 15:36:14 0.03, -75.23 0.37, -76.78 176.48 80
6 05/10/2020 15:26:47 0.02, -75.25 -0.28, -73.85 159.85 80
7 05/11/2020 03:48:11 -0.02, -75.24 -0.85, -79.04 432.35 80
8 05/12/2020 15:14:41 0.01, -75.28 -0.93, -70.91 496.24 80
9 05/13/2020 03:36:05 -0.01, -75.26 -0.21, -76.10 95.94 80
10 05/15/2020 03:21:21 -0.00, -75.30 0.42, -73.17 240.92 80
11 05/15/2020 15:42:38 0.00, -75.32 0.63, -78.35 343.44 80




NCC Satellite Simultaneous Nadir Overpasses (SNOs) Prediction Service
